DW5572 Weather Reports


time (UTC)temp
F
wind
direction
speed
knots
gust
knots
rain 1hr
in
rain 24hr
in
rain mn
in
humidity
%
barometer
mb
20260507040355 42 155 0.0 0.0 0.00 0.80 0.00 93 1008.5
20260507035856 43 155 0.0 0.0 0.00 0.80 0.80 93 1008.7
20260507035355 43 155 0.0 0.0 0.00 0.80 0.80 93 1008.8
20260507035119 43 155 0.0 0.0 0.00 0.80 0.80 93 1008.8
20260507034356 43 155 0.0 0.0 0.00 0.80 0.80 93 1008.6
20260507033855 43 155 0.0 0.0 0.00 0.80 0.80 93 1008.7
20260507033355 43 155 0.0 0.0 0.00 0.80 0.80 93 1008.7
20260507032854 43 155 0.0 0.0 0.00 0.80 0.80 93 1008.6
20260507032844 44 155 0.0 0.0 0.00 0.80 0.80 93 1008.6
20260507031842 44 155 0.0 0.0 0.00 0.80 0.80 93 1008.5
20260507031336 44 155 0.0 0.0 0.00 0.80 0.80 93 1008.6
20260507030829 44 155 0.0 0.9 0.00 0.80 0.80 93 1008.8
20260507030323 44 155 0.0 1.7 0.00 0.80 0.80 93 1008.9
20260507025818 44 155 0.0 1.7 0.00 0.80 0.80 93 1008.8
20260507025312 44 155 0.0 0.0 0.00 0.80 0.80 93 1008.9
20260507025028 44 155 0.0 0.0 0.00 0.80 0.80 93 1008.9
20260507024300 44 155 0.0 1.7 0.00 0.80 0.80 92 1008.9
20260507024026 44 155 0.0 1.7 0.00 0.80 0.80 92 1008.9
20260507023301 44 15 0.0 0.0 0.00 0.80 0.80 92 1008.9
20260507023025 44 13 0.0 0.0 0.00 0.80 0.80 92 1008.9
20260507022301 44 14 0.0 0.0 0.00 0.80 0.80 92 1008.9
20260507021801 44 14 0.0 0.0 0.00 0.80 0.80 92 1009.0
20260507021258 44 14 0.0 0.0 0.01 0.80 0.80 92 1009.0
20260507020759 44 14 0.0 0.0 0.01 0.80 0.80 92 1009.1
20260507020259 44 14 0.0 0.0 0.01 0.80 0.80 92 1009.2
20260507015755 44 14 0.0 0.0 0.01 0.80 0.80 92 1009.2
20260507015257 44 14 0.0 0.0 0.02 0.80 0.80 92 1009.3
20260507014755 44 14 0.0 0.0 0.02 0.80 0.80 92 1009.3
20260507014257 44 14 0.0 0.0 0.02 0.80 0.80 92 1009.2
20260507013757 44 14 0.0 0.0 0.03 0.80 0.80 92 1009.1
20260507013255 44 14 0.0 0.0 0.03 0.80 0.80 92 1009.1
20260507012755 44 14 0.0 0.0 0.03 0.80 0.80 92 1009.0
20260507012257 44 14 0.0 0.0 0.03 0.80 0.80 92 1009.0
20260507012013 44 14 0.0 0.0 0.04 0.80 0.80 92 1009.0
20260507011513 44 14 0.0 0.0 0.03 0.79 0.79 92 1009.0
20260507010748 44 14 0.0 0.0 0.03 0.79 0.79 92 1009.0
20260507010246 44 14 0.0 0.0 0.03 0.79 0.79 92 1008.9
20260507005745 44 14 0.0 0.0 0.03 0.79 0.79 92 1008.9
20260507005508 44 14 0.0 0.9 0.02 0.78 0.78 92 1008.9
20260507004740 44 14 0.0 0.9 0.02 0.78 0.78 92 1008.8
20260507004237 44 14 0.0 1.7 0.02 0.78 0.78 92 1008.8
20260507003737 44 14 0.0 1.7 0.01 0.77 0.77 92 1008.8
20260507003238 44 21 0.9 1.7 0.01 0.77 0.77 92 1008.7
20260507002736 44 22 0.0 1.7 0.01 0.77 0.77 92 1008.7
20260507002234 44 14 0.9 1.7 0.01 0.77 0.77 92 1008.6
20260507001959 44 12 0.9 2.6 0.01 0.76 0.76 92 1008.6
20260507001235 44 28 0.9 2.6 0.01 0.76 0.76 92 1008.5
20260507000733 44 9 0.9 1.7 0.01 0.76 0.76 92 1008.4
20260507000454 44 214 1.7 2.6 0.01 0.76 0.76 92 1008.3
20260506235731 44 351 1.7 3.5 0.01 0.76 0.76 92 1008.2
20260506235232 44 18 2.6 4.3 0.02 0.76 0.76 92 1007.9
20260506234731 44 9 2.6 4.3 0.02 0.76 0.76 92 1007.6
20260506234229 44 23 1.7 4.3 0.02 0.76 0.76 92 1007.7
20260506233731 44 25 2.6 6.1 0.02 0.76 0.76 92 1007.7
20260506233229 44 15 3.5 7.0 0.03 0.76 0.76 92 1007.7
20260506232730 44 15 4.3 7.0 0.03 0.76 0.76 92 1007.7
20260506232222 44 10 4.3 7.0 0.03 0.76 0.76 92 1007.6
20260506231719 44 20 4.3 7.8 0.03 0.75 0.75 92 1007.5
20260506231220 44 18 4.3 7.8 0.04 0.75 0.75 92 1007.3
20260506230719 44 30 4.3 7.8 0.04 0.75 0.75 92 1007.2
20260506230218 44 39 4.3 8.7 0.04 0.75 0.75 92 1007.3
20260506225718 44 38 5.2 9.6 0.04 0.75 0.75 92 1007.4
20260506225221 44 348 5.2 10.4 0.03 0.74 0.74 92 1007.3
20260506224718 44 16 5.2 10.4 0.03 0.74 0.74 92 1007.4
20260506224217 44 9 6.1 12.2 0.04 0.74 0.74 92 1007.2
20260506223718 44 38 7.0 12.2 0.04 0.74 0.74 92 1007.1
20260506223217 44 10 7.0 12.2 0.03 0.73 0.73 92 1007.0
20260506222717 44 47 7.0 11.3 0.03 0.73 0.73 92 1006.9
20260506222438 44 21 7.8 12.2 0.03 0.73 0.73 92 1007.0
20260506221718 44 33 7.0 12.2 0.02 0.73 0.72 92 1006.9
20260506221217 44 35 6.1 12.2 0.01 0.72 0.71 92 1006.9
20260506220717 44 27 6.1 11.3 0.01 0.72 0.71 92 1007.0
20260506220213 44 42 7.0 11.3 0.02 0.72 0.71 92 1007.0
20260506215713 44 32 7.0 11.3 0.02 0.72 0.71 92 1006.9
20260506215214 44 44 7.0 10.4 0.02 0.72 0.71 92 1006.8
20260506214938 44 30 7.0 11.3 0.02 0.72 0.71 92 1006.8
20260506214213 44 19 7.0 12.2 0.01 0.71 0.70 92 1006.7
20260506213712 44 36 7.8 12.2 0.01 0.71 0.70 92 1006.6
20260506213211 44 24 7.0 12.2 0.01 0.71 0.70 92 1006.7
20260506212709 44 42 7.0 10.4 0.01 0.71 0.70 92 1006.7
20260506212211 44 24 7.0 10.4 0.01 0.71 0.70 92 1006.6
20260506211932 44 26 6.1 10.4 0.01 0.71 0.70 92 1006.6
20260506211210 44 20 6.1 9.6 0.01 0.71 0.70 92 1006.6
20260506210710 44 15 7.0 11.3 0.01 0.71 0.70 92 1006.6
20260506210209 44 32 6.1 11.3 0.00 0.70 0.69 92 1006.5
20260506205940 44 21 6.1 8.7 0.01 0.70 0.69 92 1006.5
20260506205210 44 28 6.1 11.3 0.01 0.70 0.69 92 1006.5
20260506204710 44 19 6.1 11.3 0.01 0.70 0.69 92 1006.5
20260506204209 45 26 6.1 10.4 0.01 0.70 0.69 92 1006.5
20260506203709 44 46 6.1 10.4 0.01 0.70 0.69 92 1006.4
20260506203436 44 9 6.1 10.4 0.01 0.70 0.69 92 1006.5
20260506202709 44 19 6.1 11.3 0.01 0.70 0.69 92 1006.4
20260506202210 44 10 5.2 11.3 0.01 0.70 0.69 92 1006.5
20260506201935 45 343 4.3 8.7 0.01 0.70 0.69 92 1006.4
20260506201209 45 26 5.2 8.7 0.01 0.70 0.69 92 1006.3
20260506200711 45 39 5.2 8.7 0.02 0.70 0.69 92 1006.3
20260506200209 45 44 5.2 8.7 0.02 0.71 0.69 92 1006.3
20260506195709 45 25 4.3 8.7 0.01 0.70 0.68 91 1006.3
20260506195209 45 9 5.2 9.6 0.01 0.71 0.68 91 1006.5
20260506194713 45 25 5.2 9.6 0.02 0.71 0.68 92 1006.5
20260506194212 45 12 5.2 9.6 0.03 0.72 0.68 92 1006.4
20260506193707 45 47 6.1 9.6 0.03 0.72 0.68 92 1006.6
20260506193158 45 28 7.0 13.0 0.03 0.72 0.68 92 1006.6
20260506192653 45 34 6.1 13.0 0.03 0.73 0.68 92 1006.6
20260506192153 45 12 6.1 9.6 0.03 0.76 0.68 92 1006.5
20260506191911 45 43 6.1 12.2 0.03 0.77 0.68 92 1006.6
20260506191153 44 19 7.0 12.2 0.04 0.77 0.68 92 1006.6
20260506190651 44 22 7.8 11.3 0.03 0.76 0.67 92 1006.6
20260506190153 44 39 7.0 11.3 0.03 0.76 0.67 91 1006.6
20260506185649 44 31 7.0 13.9 0.03 0.76 0.67 92 1006.8
20260506185409 44 46 7.8 13.9 0.03 0.76 0.67 92 1006.6
20260506184651 44 24 7.8 14.8 0.03 0.75 0.66 91 1006.7
20260506184150 44 323 8.7 14.8 0.02 0.74 0.65 91 1006.7
20260506183922 44 32 7.8 13.0 0.02 0.74 0.65 92 1006.6
20260506183150 44 9 7.0 12.2 0.03 0.74 0.65 92 1006.7
20260506182913 44 16 7.0 12.2 0.03 0.74 0.65 92 1006.8
20260506182150 44 42 6.1 12.2 0.04 0.74 0.65 92 1006.8
20260506181650 44 40 6.1 11.3 0.05 0.74 0.65 92 1006.8
20260506181142 45 349 7.8 13.0 0.05 0.73 0.64 92 1006.8
20260506180636 44 39 7.8 13.0 0.06 0.73 0.64 92 1006.6
20260506180356 44 25 7.8 13.0 0.06 0.73 0.64 92 1006.8
20260506175633 44 11 7.8 13.0 0.07 0.73 0.64 92 1006.7
20260506175131 44 12 7.0 13.9 0.07 0.73 0.64 92 1006.9
20260506174631 44 11 7.0 13.9 0.07 0.72 0.63 92 1006.9
20260506174131 44 31 7.0 11.3 0.08 0.72 0.63 92 1006.8
20260506173635 44 20 7.8 11.3 0.08 0.72 0.63 92 1006.9
20260506173132 44 198 7.8 15.6 0.08 0.71 0.63 92 1006.9
20260506172632 44 28 9.6 15.6 0.09 0.71 0.62 92 1007.0
20260506172140 44 25 9.6 13.9 0.09 0.69 0.60 92 1006.7
20260506172133 44 15 9.6 13.9 0.09 0.70 0.61 92 1006.7
20260506171128 44 28 9.6 13.0 0.09 0.68 0.59 91 1006.8
20260506170629 44 9 9.6 12.2 0.08 0.67 0.58 91 1007.0
20260506170127 44 23 9.6 13.9 0.09 0.67 0.58 91 1007.0
20260506165627 44 46 9.6 16.5 0.09 0.66 0.57 91 1007.2
20260506165128 44 28 8.7 16.5 0.10 0.66 0.57 91 1007.1
20260506164622 44 47 7.8 13.0 0.10 0.65 0.56 92 1007.2
20260506164116 45 20 7.0 11.3 0.10 0.64 0.55 92 1007.2
20260506163609 45 39 6.1 9.6 0.11 0.64 0.55 92 1007.3
20260506163324 45 24 6.1 12.2 0.11 0.63 0.54 92 1007.3
20260506162558 45 35 7.0 12.2 0.11 0.62 0.53 91 1007.2
20260506162051 45 38 9.6 13.0 0.11 0.61 0.52 91 1007.2
20260506161546 44 57 10.4 13.9 0.10 0.60 0.51 91 1007.0
20260506161040 45 46 10.4 14.8 0.10 0.59 0.50 91 1007.1
20260506160756 45 30 9.6 14.8 0.11 0.59 0.50 91 1007.1
20260506160031 45 26 9.6 14.8 0.11 0.58 0.49 91 1007.2
20260506155529 45 13 7.0 13.0 0.11 0.57 0.48 91 1007.5
20260506155031 46 33 5.2 10.4 0.10 0.56 0.47 91 1007.4
20260506154531 46 26 4.3 8.7 0.10 0.55 0.46 91 1007.5
20260506154259 46 19 4.3 7.8 0.09 0.53 0.45 91 1007.6
20260506153746 46 24 4.3 7.8 0.09 0.52 0.44 91 1007.7
20260506153255 46 14 6.1 10.4 0.09 0.52 0.43 91 1007.6
20260506152527 46 21 6.1 10.4 0.09 0.51 0.42 91 1007.6
20260506152027 46 26 4.3 9.6 0.09 0.50 0.41 91 1007.6
20260506151529 46 13 4.3 7.8 0.09 0.50 0.41 91 1007.8
20260506151028 46 26 3.5 7.0 0.09 0.49 0.40 91 1007.9
20260506150529 46 314 4.3 7.8 0.08 0.48 0.39 91 1008.0
20260506150021 46 11 4.3 7.8 0.08 0.47 0.38 91 1008.1
20260506145521 46 35 3.5 6.1 0.07 0.46 0.37 91 1007.9
20260506145019 46 26 2.6 5.2 0.07 0.46 0.37 91 1008.0
20260506144521 46 28 2.6 5.2 0.06 0.45 0.36 91 1008.0
20260506144020 46 15 4.3 8.7 0.06 0.44 0.35 91 1008.1
20260506143520 46 36 5.2 9.6 0.05 0.43 0.34 91 1008.1
20260506143240 46 34 5.2 9.6 0.05 0.42 0.33 91 1007.9
20260506142520 46 19 6.1 9.6 0.05 0.42 0.33 90 1008.1
20260506142243 46 28 5.2 9.6 0.05 0.41 0.32 90 1008.2
20260506141519 46 46 4.3 8.7 0.05 0.41 0.32 91 1008.2
20260506141019 46 30 4.3 7.8 0.05 0.40 0.31 91 1008.1
20260506140520 46 22 5.2 9.6 0.05 0.40 0.31 90 1008.1
20260506140019 46 22 7.0 12.2 0.04 0.39 0.30 90 1008.1
20260506135520 46 29 8.7 13.9 0.05 0.39 0.30 90 1008.0
20260506135021 46 32 7.8 13.9 0.05 0.39 0.30 90 1007.8
20260506134516 46 19 7.8 12.2 0.05 0.39 0.30 90 1008.1
20260506134017 46 19 8.7 12.2 0.05 0.38 0.29 90 1007.9
20260506133517 46 38 7.8 12.2 0.06 0.38 0.29 90 1007.9
20260506133015 47 20 6.1 10.4 0.05 0.37 0.28 90 1008.0
20260506132742 47 42 4.3 10.4 0.05 0.37 0.28 91 1007.9
20260506132017 47 24 4.3 9.6 0.05 0.36 0.27 90 1008.0
20260506131515 47 254 4.3 9.6 0.05 0.36 0.27 90 1008.0
20260506131016 47 24 5.2 13.0 0.04 0.35 0.27 90 1008.1
20260506130517 47 17 6.1 13.0 0.04 0.35 0.26 90 1008.0
20260506130011 47 13 5.2 8.7 0.05 0.35 0.26 90 1008.0
20260506125512 47 24 5.2 7.8 0.04 0.34 0.25 90 1008.2
20260506125012 47 32 4.3 7.8 0.04 0.34 0.25 90 1008.3
20260506124512 47 17 4.3 11.3 0.04 0.34 0.25 90 1008.3
20260506124455 47 22 6.1 11.3 0.03 0.33 0.24 90 1008.4
20260506123512 47 36 7.0 10.4 0.02 0.32 0.23 90 1008.2
20260506123012 47 41 7.0 10.4 0.02 0.32 0.23 90 1008.3
20260506122511 48 40 7.0 10.4 0.02 0.32 0.23 90 1008.1
20260506122012 48 227 6.1 9.6 0.01 0.31 0.22 90 1008.2
20260506121507 48 30 6.1 10.4 0.01 0.31 0.22 90 1008.1
20260506121007 49 14 7.0 11.3 0.01 0.31 0.22 90 1008.1
20260506120507 49 33 7.0 11.3 0.01 0.31 0.22 90 1008.2
20260506120009 49 15 7.0 12.2 0.00 0.30 0.21 91 1008.2
20260506115508 49 40 7.8 13.9 0.00 0.30 0.21 91 1008.1
20260506115008 49 28 9.6 18.2 0.00 0.30 0.21 91 1008.2
20260506114508 50 26 9.6 18.2 0.00 0.30 0.21 91 1007.5
20260506114008 50 11 7.0 11.3 0.01 0.30 0.21 91 1008.0
20260506113508 51 25 6.1 13.0 0.01 0.30 0.21 91 1008.0
20260506113008 51 28 7.0 13.0 0.01 0.30 0.21 91 1007.7
20260506112953 51 26 6.1 13.0 0.01 0.30 0.21 91 1007.7
20260506112456 51 15 7.0 13.0 0.01 0.30 0.21 91 1007.8
20260506111509 51 33 7.0 13.9 0.01 0.30 0.21 91 1007.7
20260506111237 51 36 7.8 13.9 0.01 0.30 0.21 91 1007.5
20260506110508 51 30 7.0 12.2 0.01 0.30 0.21 91 1007.5
20260506110007 51 17 5.2 10.4 0.01 0.30 0.21 91 1007.8
20260506105509 51 29 5.2 10.4 0.01 0.30 0.21 92 1007.6
20260506105008 51 15 5.2 8.7 0.01 0.30 0.21 92 1007.8
20260506104732 52 42 4.3 8.7 0.01 0.30 0.21 92 1007.7
20260506104009 52 0 5.2 8.7 0.00 0.29 0.21 92 1007.6
20260506103507 52 9 5.2 8.7 0.00 0.29 0.20 92 1007.5
20260506103007 52 37 4.3 7.8 0.00 0.29 0.20 92 1007.3
20260506102507 52 25 3.5 8.7 0.00 0.29 0.20 92 1007.4
20260506102010 52 25 4.3 9.6 0.00 0.29 0.20 92 1007.2
20260506101510 52 13 5.2 9.6 0.00 0.29 0.20 92 1006.9
20260506101010 52 34 4.3 9.6 0.00 0.29 0.20 92 1007.0
20260506100511 52 34 4.3 8.7 0.00 0.29 0.20 92 1006.9
20260506100010 52 28 5.2 8.7 0.00 0.29 0.20 92 1006.9
20260506095512 53 21 5.2 8.7 0.00 0.29 0.20 92 1007.0
20260506095006 53 24 6.1 10.4 0.00 0.29 0.20 92 1007.0
20260506094738 53 30 7.0 10.4 0.00 0.29 0.20 92 1007.0
20260506094225 53 30 7.0 11.3 0.00 0.29 0.20 92 1006.8
20260506093732 54 20 7.0 13.0 0.00 0.29 0.20 92 1007.0
20260506093229 54 29 5.2 13.0 0.00 0.29 0.20 92 1007.1
20260506092504 55 15 4.3 7.0 0.00 0.29 0.20 92 1007.1
20260506092004 55 25 2.6 7.0 0.00 0.29 0.20 92 1007.3
20260506091503 55 20 1.7 3.5 0.00 0.29 0.20 92 1006.9
20260506091006 55 42 2.6 3.5 0.00 0.29 0.20 92 1006.8
20260506090501 55 27 2.6 3.5 0.00 0.29 0.20 92 1007.1
20260506085959 55 15 1.7 3.5 0.00 0.29 0.20 92 1007.2
20260506085459 55 30 1.7 2.6 0.00 0.29 0.20 92 1007.2
20260506085223 55 304 0.9 2.6 0.00 0.29 0.20 92 1007.4
20260506084459 55 248 0.9 1.7 0.00 0.29 0.20 92 1007.3
20260506084000 55 247 0.0 0.0 0.00 0.29 0.20 92 1007.5
20260506083723 55 246 0.0 0.0 0.00 0.29 0.20 92 1007.3
20260506083445 55 246 0.0 0.0 0.00 0.29 0.20 91 1007.2
20260506082501 55 247 0.0 0.0 0.00 0.29 0.20 91 1007.1
20260506081957 55 246 0.0 0.0 0.00 0.29 0.20 91 1007.2
20260506081456 55 246 0.0 0.0 0.00 0.29 0.20 91 1007.4
20260506081223 55 245 0.0 0.0 0.00 0.29 0.20 91 1007.4
20260506080712 55 245 0.0 0.0 0.00 0.29 0.20 91 1007.6
20260506073453 56 245 0.0 0.0 0.00 0.29 0.20 91 1007.7
20260506072951 56 245 0.0 0.0 0.00 0.29 0.20 91 1007.7
20260506072453 56 245 0.0 0.0 0.00 0.29 0.20 91 1007.6
20260506071951 56 245 0.0 0.0 0.00 0.29 0.20 91 1007.5
20260506071453 56 245 0.0 0.0 0.00 0.29 0.20 91 1007.5
20260506070952 56 245 0.0 0.0 0.00 0.29 0.20 91 1007.4
20260506070712 56 245 0.0 0.0 0.00 0.29 0.20 91 1007.6
20260506062447 56 245 0.0 0.0 0.00 0.29 0.20 90 1007.8
20260506061949 56 245 0.0 0.0 0.00 0.29 0.20 90 1007.8
20260506061448 56 245 0.0 0.0 0.00 0.29 0.20 90 1007.7
20260506060948 56 245 0.0 0.0 0.00 0.29 0.20 90 1007.8
20260506060447 56 246 0.0 0.0 0.00 0.29 0.20 90 1007.8
20260506050945 58 246 0.9 1.7 0.20 0.29 0.20 87 1008.2
20260506050443 58 246 0.0 1.7 0.20 0.29 0.20 86 1008.2
20260506044705 60 324 0.0 1.7 0.15 0.24 0.15 83 1007.9
20260506044206 60 323 0.0 1.7 0.13 0.22 0.13 83 1008.1
20260506043441 60 325 0.0 0.0 0.07 0.16 0.08 82 1008.3
20260506042943 61 325 0.0 0.9 0.04 0.13 0.04 82 1008.1
20260506042436 61 325 0.0 0.9 0.03 0.12 0.03 81 1007.9
20260506041930 61 324 0.0 0.0 0.00 0.09 0.00 80 1007.7
20260506041424 62 325 0.0 0.9 0.00 0.09 0.00 79 1007.6
20260506040919 62 325 0.0 0.9 0.00 0.09 0.00 79 1007.6